Location: Lachepaillet
(43.4918°N, 1.4874°W)
Time: 03:38:16
(UTC+00:00)

Cosmos 2151 - Pass Details

Date: 15 May 2026
Orbit: 556 x 575 km, 82.5° (Epoch: 8 June)

Event Time Altitude Azimuth Distance (km) Brightness Sun altitude
Rises 20:50:59 0° 356° (N) 2,769 7.2 -13.6°
Reaches altitude 10° 20:53:14 10° 2° (N) 1,864 6.1 -13.9°
Maximum altitude 20:57:14 50° 78° (ENE) 716 3.1 -14.5°
Enters shadow 20:59:14 26° 142° (SE) 1,119 3.8 -14.7°
